Вернуться в каталог

CZ-6A DEB

АктивенSSO
NORAD 54518·DEBRIS·🇨🇳 China

Запущен Nov 11, 2022 с Taiyuan Satellite Launch Center

Loading…

Ближайшие Пролёты (ближайшие 24 часа)

TLE

СвежийSource: Space-Track

Эпоха: Sep 14, 2026, 14:00 UTC

1 54518U 22151JW  26257.58352783  .00000475  00000-0  18483-3 0  9990
2 54518  98.7663 298.0232 0125284 213.7774 145.5381 14.30255647199871

Отслеживайте CZ-6A DEB в реальном времени с AllMySat

Download on the App Store